Akron, OH

5:56 PM EST on January 17, 2018 (GMT -0500)
Akron Fulton International

Weather History for KAKR - November, 2012

Change the Weather History Date:

Monday, November 5, 2012

  Actual Average (KCAK) Record (KCAK)
Temperature  
Mean Temperature 35 °F -  
Max Temperature 37 °F 51 °F 77 °F (2015)
Min Temperature 33 °F 36 °F 14 °F (1991)
Degree Days  
Heating Degree Days 30    
Moisture  
Dew Point 28 °F    
Average Humidity 73    
Maximum Humidity 93    
Minimum Humidity 61    
Precipitation  
Precipitation 0.01 in - - ()
Sea Level Pressure  
Sea Level Pressure 30.16 in    
Wind  
Wind Speed 5 mph (North)    
Max Wind Speed 9 mph    
Max Gust Speed -    
Visibility 9 miles    
Events Rain , Snow    
Averages and records for this station are not official NWS values.
T = Trace of Precipitation, MM = Missing Value Source: NWS Daily Summary

Daily Weather History Graph

Daily Weather History Graph

Search for Another Location

Airport or City:

Trip Planner

Search our weather history database for the weather conditions in past years. The results will help you decide how hot, cold, wet, or windy it might be!

Date:

Astronomy

Nov. 05, 2012 Rise Set
Actual Time 7:02 AM EST 5:16 PM EST
Civil Twilight 6:33 AM EST 5:45 PM EST
Nautical Twilight 6:00 AM EST 6:17 PM EST
Astronomical Twilight 5:28 AM EST 6:50 PM EST
Moon 10:52 PM EST (11/5) 12:20 PM EST (11/5)
Length of Visible Light 11h 11m
Length of Day
10h 14m
Waning Gibbous, 63% of the Moon is Illuminated
Nov 5
Waning Gibbous
Nov 6
Last Quarter
Nov 13
New
Nov 20
First Quarter
Nov 28
Full

Hourly Weather History & Observations

Time (EST) Temp. Windchill Dew Point Humidity Pressure Visibility Wind Dir Wind Speed Gust Speed Precip Events Conditions
12:54 AM 36.0 °F 32.1 °F 28.0 °F 73% 30.13 in 10.0 mi NW 4.6 mph - N/A   Overcast
1:54 AM 36.0 °F 32.1 °F 28.0 °F 73% 30.12 in 10.0 mi NW 4.6 mph - N/A   Overcast
2:54 AM 36.0 °F 32.1 °F 28.9 °F 76% 30.12 in 10.0 mi NW 4.6 mph - N/A   Overcast
3:54 AM 36.0 °F 33.3 °F 28.9 °F 76% 30.12 in 10.0 mi NW 3.5 mph - N/A   Overcast
4:54 AM 36.0 °F 32.1 °F 28.9 °F 76% 30.14 in 10.0 mi WNW 4.6 mph - N/A   Overcast
5:07 AM 35.6 °F 31.7 °F 28.4 °F 75% 30.12 in 10.0 mi NW 4.6 mph - N/A   Overcast
5:54 AM 36.0 °F 30.3 °F 30.9 °F 82% 30.15 in 10.0 mi NNW 6.9 mph - N/A   Overcast
6:24 AM 35.6 °F 30.7 °F 30.2 °F 81% 30.13 in 10.0 mi NW 5.8 mph - N/A   Overcast
6:54 AM 36.0 °F 30.3 °F 30.9 °F 82% 30.16 in 10.0 mi NNW 6.9 mph - 0.00 in Rain Light Rain
7:22 AM 33.8 °F 29.6 °F 32.0 °F 93% 30.14 in 3.0 mi NNE 4.6 mph - 0.01 in Snow Light Snow
7:30 AM 33.8 °F 29.6 °F 32.0 °F 93% 30.14 in 2.5 mi North 4.6 mph - 0.01 in Snow Light Snow
7:39 AM 33.8 °F - 32.0 °F 93% 30.14 in 5.0 mi Calm Calm - 0.01 in   Overcast
7:54 AM 35.1 °F - 32.0 °F 89% 30.17 in 9.0 mi Calm Calm - 0.01 in   Overcast
8:30 AM 35.6 °F 32.8 °F 32.0 °F 87% 30.15 in 10.0 mi NNE 3.5 mph - N/A   Overcast
8:54 AM 36.0 °F 31.1 °F 30.0 °F 79% 30.18 in 10.0 mi NE 5.8 mph - N/A   Overcast
9:31 AM 37.4 °F 32.8 °F 30.2 °F 75% 30.15 in 10.0 mi NNE 5.8 mph - N/A   Overcast
9:46 AM 37.4 °F 34.9 °F 28.4 °F 70% 30.16 in 10.0 mi North 3.5 mph - N/A   Overcast
9:54 AM 36.0 °F 29.6 °F 28.0 °F 73% 30.19 in 10.0 mi North 8.1 mph - N/A   Overcast
10:54 AM 37.0 °F 30.4 °F 27.0 °F 67% 30.19 in 10.0 mi NE 9.2 mph - N/A   Overcast
11:26 AM 37.4 °F 34.9 °F 26.6 °F 65% 30.17 in 10.0 mi NNE 3.5 mph - N/A   Overcast
11:54 AM 37.0 °F 30.4 °F 26.1 °F 65% 30.19 in 10.0 mi NNE 9.2 mph - N/A   Overcast
12:54 PM 37.9 °F 32.7 °F 26.1 °F 62% 30.17 in 10.0 mi NNE 6.9 mph - N/A   Overcast
1:25 PM 37.4 °F 31.4 °F 26.6 °F 65% 30.15 in 10.0 mi North 8.1 mph - N/A   Overcast
1:54 PM 37.9 °F 34.4 °F 26.1 °F 62% 30.17 in 10.0 mi North 4.6 mph - N/A   Overcast
2:54 PM 37.0 °F 31.6 °F 27.0 °F 67% 30.17 in 10.0 mi North 6.9 mph - N/A   Overcast
3:54 PM 37.0 °F 32.4 °F 27.0 °F 67% 30.16 in 10.0 mi NE 5.8 mph - N/A   Overcast
4:54 PM 36.0 °F 30.3 °F 27.0 °F 70% 30.17 in 10.0 mi NE 6.9 mph - N/A   Overcast
5:25 PM 35.6 °F 30.7 °F 26.6 °F 70% 30.14 in 10.0 mi NE 5.8 mph - N/A   Overcast
5:54 PM 36.0 °F 30.3 °F 27.0 °F 70% 30.17 in 10.0 mi NE 6.9 mph - N/A   Overcast
6:54 PM 36.0 °F 29.6 °F 27.0 °F 70% 30.18 in 10.0 mi ENE 8.1 mph - N/A   Overcast
7:54 PM 35.1 °F 31.0 °F 25.0 °F 67% 30.19 in 10.0 mi NE 4.6 mph - N/A   Overcast
8:54 PM 35.1 °F 32.2 °F 23.0 °F 61% 30.19 in 10.0 mi East 3.5 mph - N/A   Overcast
9:54 PM 35.1 °F - 24.1 °F 64% 30.19 in 10.0 mi Calm Calm - N/A   Overcast
10:54 PM 34.0 °F - 24.1 °F 67% 30.18 in 10.0 mi Calm Calm - N/A   Overcast
11:54 PM 34.0 °F - 23.0 °F 64% 30.17 in 10.0 mi Calm Calm - N/A   Overcast